TimeEST,TemperatureF,Dew PointF,Humidity,Sea Level PressureIn,VisibilityMPH,Wind Direction,Wind SpeedMPH,Gust SpeedMPH,PrecipitationIn,Events,Conditions,WindDirDegrees,DateUTC
12:14 AM,16.3,7.7,69,29.96,10.0,Calm,Calm,-,N/A,,Overcast,0,2013-02-04 05:14:00
12:34 AM,15.8,8.4,73,29.97,10.0,WSW,5.8,-,N/A,,Overcast,240,2013-02-04 05:34:00
12:55 AM,16.3,9.5,74,29.97,7.0,WSW,5.8,-,N/A,,Overcast,240,2013-02-04 05:55:00
1:14 AM,16.3,10.2,77,29.98,10.0,WSW,6.9,-,N/A,,Overcast,240,2013-02-04 06:14:00
1:34 AM,16.3,10.4,77,29.97,10.0,SW,5.8,-,N/A,,Overcast,230,2013-02-04 06:34:00
1:55 AM,16.3,10.8,79,29.97,10.0,SW,4.6,-,N/A,,Overcast,230,2013-02-04 06:55:00
2:14 AM,16.3,10.9,79,29.98,10.0,WSW,3.5,-,N/A,,Overcast,240,2013-02-04 07:14:00
2:35 AM,16.3,10.9,79,29.98,10.0,WSW,3.5,-,N/A,,Overcast,240,2013-02-04 07:35:00
2:54 AM,16.5,11.1,79,29.98,10.0,SW,4.6,-,N/A,,Overcast,230,2013-02-04 07:54:00
3:14 AM,16.5,11.1,79,29.98,10.0,SW,3.5,-,N/A,,Overcast,230,2013-02-04 08:14:00
3:35 AM,16.5,10.9,79,29.98,10.0,SW,3.5,-,N/A,,Overcast,230,2013-02-04 08:35:00
3:54 AM,16.7,10.9,78,29.97,10.0,SW,5.8,-,N/A,,Overcast,230,2013-02-04 08:54:00
4:14 AM,16.7,10.8,77,29.96,10.0,SW,4.6,-,N/A,,Overcast,230,2013-02-04 09:14:00
5:54 AM,16.2,10.9,80,29.95,5.0,Calm,Calm,-,N/A,Snow,Light Snow,0,2013-02-04 10:54:00
6:15 AM,15.8,10.9,81,29.94,5.0,South,3.5,-,N/A,Snow,Light Snow,180,2013-02-04 11:15:00
6:34 AM,16.3,11.3,81,29.94,7.0,SSE,3.5,-,N/A,Snow,Light Snow,150,2013-02-04 11:34:00
6:54 AM,16.5,11.5,81,29.94,7.0,South,3.5,-,N/A,Snow,Light Snow,190,2013-02-04 11:54:00
7:15 AM,16.3,11.3,81,29.93,4.0,SSE,3.5,-,N/A,Snow,Light Snow,160,2013-02-04 12:15:00
7:34 AM,16.5,11.8,82,29.93,4.0,SE,3.5,-,N/A,Snow,Light Snow,140,2013-02-04 12:34:00
7:54 AM,16.5,12.0,82,29.93,4.0,SSE,4.6,-,N/A,Snow,Light Snow,150,2013-02-04 12:54:00
8:14 AM,16.7,12.2,82,29.94,1.8,Calm,Calm,-,N/A,Snow,Light Snow,0,2013-02-04 13:14:00
8:34 AM,16.7,12.0,82,29.95,1.2,SSE,3.5,-,N/A,Snow,Light Snow,150,2013-02-04 13:34:00
8:55 AM,16.7,12.2,82,29.95,0.8,Calm,Calm,-,N/A,Snow,Light Snow,0,2013-02-04 13:55:00
9:14 AM,16.7,12.0,82,29.95,1.0,SSE,4.6,-,N/A,Snow,Light Snow,150,2013-02-04 14:14:00
9:34 AM,17.2,12.6,82,29.95,1.5,East,3.5,-,N/A,Snow,Light Snow,100,2013-02-04 14:34:00
9:55 AM,17.4,12.6,81,29.94,1.0,ESE,3.5,-,N/A,Snow,Light Snow,110,2013-02-04 14:55:00
10:14 AM,17.6,12.9,82,29.94,0.5,East,4.6,-,N/A,Snow,Light Snow,100,2013-02-04 15:14:00
10:35 AM,18.0,12.9,81,29.94,1.2,East,3.5,-,N/A,Snow,Light Snow,100,2013-02-04 15:35:00
10:54 AM,18.3,13.3,81,29.94,0.8,East,3.5,-,N/A,Snow,Light Snow,100,2013-02-04 15:54:00
11:14 AM,18.5,13.3,80,29.94,1.0,East,4.6,-,N/A,Snow,Light Snow,90,2013-02-04 16:14:00
11:35 AM,19.2,13.8,80,29.93,0.5,ESE,4.6,-,N/A,Snow,Light Snow,120,2013-02-04 16:35:00
11:54 AM,19.4,13.8,79,29.92,1.5,SE,4.6,-,N/A,Snow,Light Snow,130,2013-02-04 16:54:00
12:15 PM,19.6,13.8,78,29.91,1.5,SE,3.5,-,N/A,Snow,Light Snow,130,2013-02-04 17:15:00
12:34 PM,20.1,14.0,77,29.90,1.8,ESE,4.6,-,N/A,Snow,Light Snow,120,2013-02-04 17:34:00
12:54 PM,20.3,14.2,77,29.89,2.0,ESE,3.5,-,N/A,Snow,Light Snow,110,2013-02-04 17:54:00
1:15 PM,20.7,14.4,77,29.88,1.2,Calm,Calm,-,N/A,Snow,Light Snow,0,2013-02-04 18:15:00
1:34 PM,21.2,14.9,77,29.88,2.0,Calm,Calm,-,N/A,Snow,Light Snow,0,2013-02-04 18:34:00
1:54 PM,21.2,14.9,77,29.88,1.5,Calm,Calm,-,N/A,Snow,Light Snow,0,2013-02-04 18:54:00
2:15 PM,21.2,14.9,77,29.87,1.5,NE,3.5,-,N/A,Snow,Light Snow,50,2013-02-04 19:15:00
2:34 PM,21.7,14.9,75,29.86,1.8,ENE,3.5,-,N/A,Snow,Light Snow,60,2013-02-04 19:34:00
2:54 PM,22.1,15.6,76,29.86,1.8,Calm,Calm,-,N/A,Snow,Light Snow,0,2013-02-04 19:54:00
3:34 PM,22.5,15.8,76,29.85,2.0,Calm,Calm,-,N/A,Snow,Light Snow,0,2013-02-04 20:34:00
3:54 PM,22.5,15.8,76,29.85,2.5,Calm,Calm,-,N/A,Snow,Light Snow,0,2013-02-04 20:54:00
4:15 PM,22.5,15.8,76,29.86,3.0,Calm,Calm,-,N/A,Snow,Light Snow,0,2013-02-04 21:15:00
4:34 PM,22.5,15.8,76,29.85,3.0,Calm,Calm,-,N/A,Snow,Light Snow,0,2013-02-04 21:34:00
4:55 PM,22.5,15.8,76,29.85,4.0,Calm,Calm,-,N/A,Snow,Light Snow,0,2013-02-04 21:55:00
5:14 PM,22.1,15.8,77,29.84,3.0,Calm,Calm,-,N/A,Snow,Light Snow,0,2013-02-04 22:14:00
5:34 PM,22.1,15.8,77,29.84,3.0,Calm,Calm,-,N/A,Snow,Light Snow,0,2013-02-04 22:34:00
5:55 PM,22.1,15.8,77,29.84,4.0,Calm,Calm,-,N/A,Snow,Light Snow,0,2013-02-04 22:55:00
6:14 PM,21.7,15.8,78,29.84,7.0,NNE,3.5,-,N/A,Snow,Light Snow,20,2013-02-04 23:14:00
6:35 PM,21.2,15.6,79,29.85,7.0,North,3.5,-,N/A,Snow,Light Snow,360,2013-02-04 23:35:00
6:55 PM,20.8,15.4,80,29.85,7.0,North,4.6,-,N/A,Snow,Light Snow,360,2013-02-04 23:55:00
7:14 PM,20.7,15.1,79,29.86,5.0,NNE,3.5,-,N/A,Snow,Light Snow,20,2013-02-05 00:14:00
7:35 PM,20.3,14.9,80,29.87,5.0,North,3.5,-,N/A,Snow,Light Snow,360,2013-02-05 00:35:00
7:54 PM,20.3,14.9,80,29.88,7.0,North,3.5,-,N/A,Snow,Light Snow,360,2013-02-05 00:54:00
8:14 PM,20.1,14.9,80,29.88,7.0,North,3.5,-,N/A,Snow,Light Snow,350,2013-02-05 01:14:00
8:35 PM,19.9,14.9,81,29.88,5.0,North,3.5,-,N/A,Snow,Light Snow,10,2013-02-05 01:35:00
8:54 PM,19.9,14.9,81,29.89,7.0,North,4.6,-,N/A,Snow,Light Snow,360,2013-02-05 01:54:00
9:14 PM,19.4,14.2,80,29.89,5.0,North,3.5,-,N/A,Snow,Light Snow,360,2013-02-05 02:14:00
9:35 PM,19.4,14.0,80,29.90,5.0,North,3.5,-,N/A,Snow,Light Snow,10,2013-02-05 02:35:00
9:54 PM,19.0,14.0,81,29.89,5.0,Calm,Calm,-,N/A,Snow,Light Snow,0,2013-02-05 02:54:00
10:14 PM,18.9,13.6,80,29.89,7.0,Calm,Calm,-,N/A,Snow,Light Snow,0,2013-02-05 03:14:00
10:34 PM,18.5,13.1,79,29.88,7.0,Calm,Calm,-,N/A,Snow,Light Snow,0,2013-02-05 03:34:00
10:54 PM,18.5,13.1,79,29.88,7.0,North,3.5,-,N/A,Snow,Light Snow,360,2013-02-05 03:54:00
11:15 PM,18.5,13.5,81,29.89,7.0,North,4.6,-,N/A,Snow,Light Snow,350,2013-02-05 04:15:00
11:34 PM,18.5,13.1,79,29.90,7.0,North,3.5,-,N/A,Snow,Light Snow,350,2013-02-05 04:34:00
11:54 PM,18.5,13.5,81,29.91,5.0,NNW,3.5,-,N/A,Snow,Light Snow,340,2013-02-05 04:54:00